• Em Portugal
  • Lista de países
  • Para 7 dias
  • Temperatura da água
  • Mapas de satélite
  • Mapa do tempo
  • Widgets de tempo
  • user-avatar
    Iniciar Sessão

    Previsão horária em Druskininkai

    Hoje, 15 Agosto, Quarta-feira

    Tempo Temperatura Precipitação Vento Pressão Humidade
    00:00 +18°C° 0 mm 2 m/s 747 mmHg 94%
    01:00 +17°C° 0 mm 2 m/s 747 mmHg 95%
    02:00 +17°C° 0 mm 2 m/s 748 mmHg 95%
    03:00 +16°C° 0 mm 2 m/s 748 mmHg 95%
    04:00 +16°C° 0 mm 2 m/s 748 mmHg 95%
    05:00 +16°C° 0 mm 2 m/s 748 mmHg 95%
    06:00 +17°C° 0 mm 2 m/s 748 mmHg 91%
    07:00 +18°C° 0 mm 3 m/s 748 mmHg 87%
    08:00 +19°C° 0 mm 3 m/s 749 mmHg 83%
    09:00 +21°C° 0 mm 3 m/s 749 mmHg 77%
    10:00 +22°C° 0 mm 4 m/s 749 mmHg 70%
    11:00 +25°C° 0 mm 4 m/s 749 mmHg 64%
    12:00 +25°C° 0,3 mm 4 m/s 749 mmHg 63%
    13:00 +25°C° 0,3 mm 5 m/s 749 mmHg 62%
    14:00 +26°C° 0,3 mm 5 m/s 749 mmHg 61%
    15:00 +25°C° 0,3 mm 5 m/s 749 mmHg 64%
    16:00 +25°C° 0,3 mm 4 m/s 749 mmHg 66%
    17:00 +25°C° 0,3 mm 4 m/s 749 mmHg 69%
    18:00 +22°C° 0,2 mm 4 m/s 750 mmHg 76%
    19:00 +20°C° 0,2 mm 3 m/s 750 mmHg 83%
    20:00 +19°C° 0,2 mm 3 m/s 750 mmHg 90%
    21:00 +18°C° 0 mm 3 m/s 751 mmHg 92%
    22:00 +17°C° 0 mm 3 m/s 751 mmHg 94%
    23:00 +17°C° 0 mm 2 m/s 752 mmHg 96%

    Amanhã, 16 Agosto, Quinta-feira

    Tempo Temperatura Precipitação Vento Pressão Humidade
    00:00 +16°C° 0 mm 2 m/s 752 mmHg 96%
    01:00 +15°C° 0 mm 2 m/s 752 mmHg 96%
    02:00 +15°C° 0 mm 2 m/s 752 mmHg 97%
    03:00 +15°C° 0 mm 2 m/s 752 mmHg 97%
    04:00 +14°C° 0 mm 2 m/s 753 mmHg 97%
    05:00 +14°C° 0 mm 2 m/s 753 mmHg 97%
    06:00 +15°C° 0 mm 2 m/s 753 mmHg 94%
    07:00 +16°C° 0 mm 2 m/s 753 mmHg 90%
    08:00 +18°C° 0 mm 3 m/s 753 mmHg 86%
    09:00 +19°C° 0 mm 3 m/s 754 mmHg 81%
    10:00 +20°C° 0 mm 2 m/s 754 mmHg 76%
    11:00 +21°C° 0 mm 2 m/s 754 mmHg 72%
    12:00 +21°C° 0,1 mm 2 m/s 754 mmHg 70%
    13:00 +23°C° 0,1 mm 2 m/s 754 mmHg 69%
    14:00 +23°C° 0,1 mm 2 m/s 754 mmHg 67%
    15:00 +23°C° 0,1 mm 2 m/s 754 mmHg 67%
    16:00 +24°C° 0,1 mm 2 m/s 753 mmHg 66%
    17:00 +24°C° 0,1 mm 2 m/s 753 mmHg 66%
    18:00 +22°C° 0 mm 1 m/s 753 mmHg 73%
    19:00 +21°C° 0 mm 1 m/s 754 mmHg 79%
    20:00 +19°C° 0 mm 1 m/s 754 mmHg 86%
    21:00 +19°C° 0 mm 1 m/s 754 mmHg 88%
    22:00 +18°C° 0 mm 1 m/s 754 mmHg 90%
    23:00 +18°C° 0 mm 1 m/s 754 mmHg 92%

    Depois de amanhã, 17 Agosto, Sexta-feira

    Tempo Temperatura Precipitação Vento Pressão Humidade
    00:00 +16°C° 0 mm 1 m/s 754 mmHg 93%
    01:00 +16°C° 0 mm 1 m/s 754 mmHg 93%
    02:00 +16°C° 0 mm 1 m/s 754 mmHg 94%
    03:00 +15°C° 0 mm 1 m/s 754 mmHg 94%
    04:00 +15°C° 0 mm 1 m/s 754 mmHg 95%
    05:00 +15°C° 0 mm 1 m/s 754 mmHg 95%
    06:00 +16°C° 0 mm 1 m/s 754 mmHg 90%
    07:00 +19°C° 0 mm 1 m/s 755 mmHg 86%
    08:00 +20°C° 0 mm 1 m/s 755 mmHg 81%
    09:00 +22°C° 0 mm 1 m/s 755 mmHg 75%
    10:00 +23°C° 0 mm 2 m/s 754 mmHg 69%
    11:00 +24°C° 0 mm 2 m/s 754 mmHg 64%
    12:00 +25°C° 0 mm 2 m/s 754 mmHg 62%
    13:00 +25°C° 0 mm 2 m/s 754 mmHg 59%
    14:00 +26°C° 0 mm 2 m/s 754 mmHg 57%
    15:00 +26°C° 0 mm 2 m/s 753 mmHg 58%
    16:00 +26°C° 0 mm 2 m/s 753 mmHg 58%
    17:00 +26°C° 0 mm 2 m/s 753 mmHg 59%
    18:00 +24°C° 0 mm 1 m/s 753 mmHg 66%
    19:00 +22°C° 0 mm 1 m/s 753 mmHg 73%
    20:00 +20°C° 0 mm 1 m/s 753 mmHg 81%
    21:00 +20°C° 0 mm 1 m/s 753 mmHg 83%
    22:00 +19°C° 0 mm 1 m/s 753 mmHg 86%
    23:00 +18°C° 0 mm 1 m/s 753 mmHg 89%

    18 Agosto, Sábado

    Tempo Temperatura Precipitação Vento Pressão Humidade
    00:00 +18°C° 0 mm 1 m/s 753 mmHg 90%
    01:00 +18°C° 0 mm 1 m/s 753 mmHg 91%
    02:00 +16°C° 0 mm 1 m/s 753 mmHg 92%
    03:00 +16°C° 0 mm 1 m/s 753 mmHg 92%
    04:00 +16°C° 0 mm 1 m/s 753 mmHg 92%
    05:00 +16°C° 0 mm 1 m/s 753 mmHg 92%
    06:00 +18°C° 0 mm 1 m/s 753 mmHg 87%
    07:00 +20°C° 0 mm 1 m/s 754 mmHg 81%
    08:00 +22°C° 0 mm 1 m/s 754 mmHg 75%
    09:00 +24°C° 0 mm 1 m/s 754 mmHg 69%
    10:00 +25°C° 0 mm 1 m/s 754 mmHg 62%
    11:00 +27°C° 0 mm 1 m/s 754 mmHg 56%
    12:00 +28°C° 0 mm 1 m/s 753 mmHg 53%
    13:00 +28°C° 0 mm 1 m/s 753 mmHg 50%
    14:00 +29°C° 0 mm 1 m/s 753 mmHg 47%
    15:00 +28°C° 0 mm 2 m/s 753 mmHg 50%
    16:00 +28°C° 0 mm 2 m/s 753 mmHg 52%
    17:00 +27°C° 0 mm 2 m/s 753 mmHg 54%
    18:00 +26°C° 0,1 mm 2 m/s 753 mmHg 62%
    19:00 +24°C° 0,1 mm 2 m/s 753 mmHg 69%
    20:00 +21°C° 0,1 mm 2 m/s 753 mmHg 76%
    21:00 +20°C° 0 mm 2 m/s 753 mmHg 80%
    22:00 +19°C° 0 mm 2 m/s 753 mmHg 85%
    23:00 +18°C° 0 mm 2 m/s 754 mmHg 89%

    19 Agosto, Domingo

    Tempo Temperatura Precipitação Vento Pressão Humidade
    00:00 +18°C° 0 mm 2 m/s 754 mmHg 92%
    01:00 +17°C° 0 mm 2 m/s 754 mmHg 94%
    02:00 +16°C° 0 mm 2 m/s 754 mmHg 97%
    03:00 +16°C° 0 mm 2 m/s 754 mmHg 96%
    04:00 +15°C° 0 mm 2 m/s 754 mmHg 96%
    05:00 +15°C° 0 mm 2 m/s 754 mmHg 95%
    06:00 +16°C° 0 mm 2 m/s 754 mmHg 89%
    07:00 +17°C° 0 mm 2 m/s 755 mmHg 82%
    08:00 +18°C° 0 mm 2 m/s 755 mmHg 75%
    09:00 +19°C° 0 mm 3 m/s 755 mmHg 70%
    10:00 +20°C° 0 mm 3 m/s 755 mmHg 64%
    11:00 +22°C° 0 mm 3 m/s 755 mmHg 59%
    12:00 +23°C° 0 mm 4 m/s 755 mmHg 58%
    13:00 +23°C° 0 mm 4 m/s 755 mmHg 57%
    14:00 +25°C° 0 mm 4 m/s 754 mmHg 56%
    15:00 +23°C° 0,1 mm 4 m/s 754 mmHg 61%
    16:00 +23°C° 0,1 mm 4 m/s 754 mmHg 66%
    17:00 +22°C° 0,1 mm 4 m/s 754 mmHg 72%
    18:00 +21°C° 0 mm 3 m/s 754 mmHg 78%
    19:00 +19°C° 0 mm 2 m/s 755 mmHg 85%
    20:00 +18°C° 0 mm 2 m/s 755 mmHg 91%
    21:00 +17°C° 0 mm 2 m/s 755 mmHg 92%
    22:00 +17°C° 0 mm 2 m/s 755 mmHg 93%
    23:00 +16°C° 0 mm 2 m/s 755 mmHg 94%

    20 Agosto, Segunda-feira

    Tempo Temperatura Precipitação Vento Pressão Humidade
    00:00 +16°C° 0 mm 2 m/s 755 mmHg 94%
    01:00 +15°C° 0 mm 2 m/s 755 mmHg 94%
    02:00 +14°C° 0 mm 2 m/s 755 mmHg 95%
    03:00 +14°C° 0 mm 1 m/s 755 mmHg 95%
    04:00 +13°C° 0 mm 1 m/s 755 mmHg 95%
    05:00 +13°C° 0 mm 1 m/s 755 mmHg 95%
    06:00 +14°C° 0 mm 1 m/s 756 mmHg 89%
    07:00 +15°C° 0 mm 1 m/s 756 mmHg 84%
    08:00 +16°C° 0 mm 1 m/s 756 mmHg 79%
    09:00 +18°C° 0 mm 2 m/s 756 mmHg 71%
    10:00 +20°C° 0 mm 2 m/s 756 mmHg 63%
    11:00 +21°C° 0 mm 2 m/s 756 mmHg 55%
    12:00 +23°C° 0 mm 2 m/s 756 mmHg 52%
    13:00 +23°C° 0 mm 2 m/s 756 mmHg 50%
    14:00 +24°C° 0 mm 2 m/s 756 mmHg 47%
    15:00 +24°C° 0 mm 2 m/s 755 mmHg 50%
    16:00 +24°C° 0 mm 2 m/s 755 mmHg 52%
    17:00 +23°C° 0 mm 2 m/s 755 mmHg 54%
    18:00 +21°C° 0 mm 2 m/s 755 mmHg 62%
    19:00 +19°C° 0 mm 2 m/s 755 mmHg 69%
    20:00 +18°C° 0 mm 1 m/s 755 mmHg 77%
    21:00 +16°C° 0 mm 1 m/s 755 mmHg 80%
    22:00 +16°C° 0 mm 1 m/s 756 mmHg 84%
    23:00 +15°C° 0 mm 1 m/s 756 mmHg 87%
    Mostrar mais